time_stamp(utc),avg(mph),gust(mph),direction(deg),12m_air_temp(f),sonic_u(cm/s),sonic_v(cm/s),sonic_w(cm/s),pressure,2m_air_temp(f),pyranometer(W/m^2)
"2019-11-10 00:02:54+00",0.0,0.0,,40.5,383,-1418,834,1021.81,39.8,0
"2019-11-10 00:07:54+00",0.0,0.0,,40.5,427,-1475,873,1021.75,39.8,0
"2019-11-10 00:12:54+00",0.0,0.0,,40.6,305,-1278,737,1021.83,39.8,0
"2019-11-10 00:17:54+00",0.0,0.0,,40.5,395,-1443,836,1021.84,39.8,0
"2019-11-10 00:22:54+00",0.0,0.0,,40.3,210,-1100,648,1021.82,39.7,0
"2019-11-10 00:27:54+00",0.0,0.0,,40.4,330,-1278,752,1021.81,39.7,0
"2019-11-10 00:32:54+00",0.0,0.0,,40.4,202,-1011,599,1021.73,39.6,0
"2019-11-10 00:37:54+00",0.0,0.0,,40.5,263,-1143,672,1021.7,39.6,0
"2019-11-10 00:42:54+00",0.0,0.0,,40.5,193,-1010,597,1021.61,39.5,0
"2019-11-10 00:47:54+00",0.0,0.0,,40.4,113,-788,486,1021.59,39.5,0
"2019-11-10 00:52:54+00",0.0,0.0,,40.4,111,-764,471,1021.42,39.4,0
"2019-11-10 00:57:54+00",0.0,0.0,,40.3,224,-924,583,1021.51,39.3,0
"2019-11-10 01:02:54+00",0.0,0.0,,40.4,250,-989,639,1021.51,39.4,0
"2019-11-10 01:07:54+00",0.0,0.0,,40.5,334,-1155,757,1021.6,39.6,0
"2019-11-10 01:12:54+00",0.0,0.0,,40.6,142,-782,521,1021.57,39.7,0
"2019-11-10 01:17:54+00",0.0,0.0,,40.5,305,-1043,689,1021.58,39.8,0
"2019-11-10 01:22:54+00",0.0,0.0,,40.6,250,-1012,665,1021.58,39.7,0
"2019-11-10 01:27:54+00",0.0,0.0,,40,138,-626,480,1021.52,39.6,0
"2019-11-10 01:32:54+00",0.0,0.0,,40,-4,-382,291,1021.47,39.4,0
"2019-11-10 01:37:54+00",0.0,0.0,,39.9,40,-470,380,1021.51,39.1,0
"2019-11-10 01:42:54+00",0.0,0.0,,39.9,-51,-258,251,1021.54,38.9,0
"2019-11-10 01:47:54+00",0.0,0.0,,39.9,87,-554,412,1021.47,38.7,0
"2019-11-10 01:52:54+00",0.0,0.0,,40,34,-479,377,1021.51,38.7,0
"2019-11-10 01:57:54+00",0.0,0.0,,39.9,22,-328,296,1021.52,38.6,0
"2019-11-10 02:02:54+00",0.0,0.0,,39.9,87,-490,399,1021.46,38.5,0
"2019-11-10 02:07:54+00",0.0,0.0,,39.7,55,-414,344,1021.47,38.4,0
"2019-11-10 02:12:54+00",0.0,0.0,,39.7,100,-431,359,1021.52,38.2,0
"2019-11-10 02:17:54+00",0.0,0.0,,39.7,1,-132,199,1021.6,38.2,0
"2019-11-10 02:22:54+00",0.0,0.0,,39.3,-82,67,77,1021.49,37.9,0
"2019-11-10 02:27:54+00",0.0,0.0,,39,-76,6,106,1021.49,37.5,0
"2019-11-10 02:32:54+00",0.0,0.0,,39.1,23,-192,211,1021.52,37.3,0
"2019-11-10 02:37:54+00",0.0,0.0,,39.1,-77,53,89,1021.49,37.1,0
"2019-11-10 02:42:54+00",0.0,0.0,,39.2,-59,2,149,1021.43,36.8,0
"2019-11-10 02:47:54+00",0.0,0.0,,39.3,2,-95,198,1021.46,36.7,0
"2019-11-10 02:52:54+00",0.0,0.0,,39.2,-48,-3,118,1021.49,36.7,0
"2019-11-10 02:57:54+00",0.0,0.0,,38.9,-62,139,66,1021.49,36.6,0
"2019-11-10 03:02:54+00",0.0,0.0,,38.6,-72,181,39,1021.43,36.4,0
"2019-11-10 03:07:54+00",0.0,0.0,,38.7,-21,-12,143,1021.47,36.1,0
"2019-11-10 03:12:54+00",0.0,0.0,,38.6,-89,86,51,1021.49,35.9,0
"2019-11-10 03:17:54+00",0.0,0.0,,38.7,-109,133,35,1021.41,35.7,0
"2019-11-10 03:22:54+00",0.0,0.0,,38.7,-98,148,29,1021.32,35.6,0
"2019-11-10 03:27:54+00",0.0,0.0,,38.7,-80,140,30,1021.16,35.4,0
"2019-11-10 03:32:54+00",0.0,0.0,,38.6,-95,163,21,1021.27,35.3,0
"2019-11-10 03:37:54+00",0.0,0.0,,38.3,-99,197,-7,1021.18,35.2,0
"2019-11-10 03:42:54+00",0.0,0.0,,37.9,-86,205,-11,1021.05,35,0
"2019-11-10 03:47:54+00",0.0,0.0,,37.7,-44,180,-5,1021.03,34.8,0
"2019-11-10 03:52:54+00",0.0,0.0,,37.8,-47,158,-2,1020.93,34.7,0
"2019-11-10 03:57:54+00",0.0,0.0,,38.1,-62,135,-2,1020.75,34.7,0
"2019-11-10 04:02:54+00",0.0,0.0,,38.3,-55,97,14,1020.73,34.8,0
"2019-11-10 04:07:54+00",0.0,0.0,,38.3,-80,71,7,1020.69,34.8,0
"2019-11-10 04:12:54+00",0.0,0.0,,38.5,-75,54,13,1020.75,34.7,0
"2019-11-10 04:17:54+00",0.0,0.0,,38.5,-69,59,13,1020.69,34.6,0
"2019-11-10 04:22:54+00",0.0,0.0,,38.6,-64,16,39,1020.86,34.7,0
"2019-11-10 04:27:54+00",0.0,0.0,,38.7,-71,26,22,1020.71,34.7,0
"2019-11-10 04:32:54+00",0.0,0.0,,38.7,-84,30,10,1020.77,34.7,0
"2019-11-10 04:37:54+00",0.0,0.0,,38.9,-74,-13,16,1020.77,34.6,0
"2019-11-10 04:42:54+00",0.0,0.0,,38.9,-91,-84,33,1020.72,34.6,0
"2019-11-10 04:47:54+00",0.0,0.0,,39.2,-127,-131,99,1020.7,34.6,0
"2019-11-10 04:52:54+00",0.0,0.0,,39.3,-114,-140,112,1020.6,34.7,0
"2019-11-10 04:57:54+00",0.0,0.0,,39.5,-122,-120,105,1020.53,35.1,0
"2019-11-10 05:02:54+00",0.0,0.0,,39.6,-131,-91,87,1020.5,35.3,0
"2019-11-10 05:07:54+00",0.0,0.0,,39.6,-101,-135,109,1020.49,35.4,0
"2019-11-10 05:12:54+00",0.0,0.0,,39.6,-135,-106,79,1020.47,35.5,0
"2019-11-10 05:17:54+00",0.0,0.0,,39.6,-108,-150,79,1020.46,35.5,0
"2019-11-10 05:22:54+00",0.0,0.0,,39.4,-125,-95,61,1020.37,35.5,0
"2019-11-10 05:27:54+00",0.0,0.0,,39.3,-105,-88,44,1020.31,35.6,0
"2019-11-10 05:32:54+00",0.0,0.0,,39.3,-136,-83,27,1020.35,35.4,0
"2019-11-10 05:37:54+00",0.0,0.0,,39.3,-145,-77,27,1020.29,35.5,0
"2019-11-10 05:42:54+00",0.0,0.0,,39.3,-130,-91,32,1020.26,35.5,0
"2019-11-10 05:47:54+00",0.0,0.0,,39.2,-140,-80,21,1020.11,35.4,0
"2019-11-10 05:52:54+00",0.0,0.0,,39.3,-148,-152,45,1020.14,35.3,0
"2019-11-10 05:57:54+00",0.0,0.0,,39.3,-172,-170,51,1020.09,35.2,0
"2019-11-10 06:02:54+00",0.0,0.0,,39.5,-139,-276,140,1020.15,35.3,0
"2019-11-10 06:07:54+00",0.0,0.0,,39.5,-136,-180,126,1020.08,35.3,0
"2019-11-10 06:12:54+00",0.0,0.0,,39.5,-46,-468,268,1020.01,35.4,0
"2019-11-10 06:17:54+00",0.0,0.0,,39.7,-3,-589,341,1019.91,35.5,0
"2019-11-10 06:22:54+00",0.0,0.0,,39.8,-133,-325,179,1019.85,35.8,0
"2019-11-10 06:27:54+00",0.0,0.0,,39.7,-108,-255,147,1019.76,36.2,0
"2019-11-10 06:32:54+00",0.0,0.0,,39.5,-108,-227,130,1019.68,36.4,0
"2019-11-10 06:37:54+00",0.0,0.0,,39.4,-120,-234,131,1019.58,36.5,0
"2019-11-10 06:42:54+00",0.0,0.0,,39.4,-145,-250,140,1019.54,36.6,0
"2019-11-10 06:47:54+00",0.0,0.0,,39.7,-124,-365,179,1019.58,36.6,0
"2019-11-10 06:52:54+00",0.0,0.0,,39.9,-38,-581,278,1019.59,36.6,0
"2019-11-10 06:57:54+00",0.0,0.0,,40.1,-57,-510,235,1019.34,36.5,0
"2019-11-10 07:02:54+00",0.0,0.0,,40.2,-34,-521,241,1019.36,36.5,0
"2019-11-10 07:07:54+00",0.0,0.0,,40.5,56,-712,361,1019.38,36.5,0
"2019-11-10 07:12:54+00",0.0,0.0,,40.7,85,-802,401,1019.26,36.6,0
"2019-11-10 07:17:54+00",0.0,0.0,,40.8,63,-736,352,1019.22,36.7,0
"2019-11-10 07:22:54+00",0.0,0.0,,40.9,-113,-434,172,1019.23,36.7,0
"2019-11-10 07:27:54+00",0.0,0.0,,40.8,-91,-481,194,1019.12,36.7,0
"2019-11-10 07:32:54+00",0.0,0.0,,40.8,51,-779,361,1019.01,36.7,0
"2019-11-10 07:37:54+00",0.0,0.0,,40.8,117,-867,416,1018.94,36.7,0
"2019-11-10 07:42:54+00",0.0,0.0,,40.9,120,-864,417,1018.81,36.8,0
"2019-11-10 07:47:54+00",0.0,0.0,,40.9,104,-923,436,1018.78,37,0
"2019-11-10 07:52:54+00",0.0,0.0,,40.9,-25,-690,284,1018.78,37.4,0
"2019-11-10 07:57:54+00",0.0,0.0,,41,-99,-599,217,1018.75,37.8,0
"2019-11-10 08:02:54+00",0.0,0.0,,41.3,-91,-614,233,1018.81,38.2,0
"2019-11-10 08:07:54+00",0.0,0.0,,41.3,49,-817,366,1018.79,38.4,0
"2019-11-10 08:12:54+00",0.0,0.0,,41.3,-6,-650,282,1018.75,38.5,0
"2019-11-10 08:17:54+00",0.0,0.0,,41.4,-195,-365,91,1018.75,38.6,0
"2019-11-10 08:22:54+00",0.0,0.0,,41.5,-48,-637,262,1018.83,38.7,0
"2019-11-10 08:27:54+00",0.0,0.0,,41.4,42,-775,346,1018.73,38.7,0
"2019-11-10 08:32:54+00",0.0,0.0,,41.4,70,-776,362,1018.68,38.7,0
"2019-11-10 08:37:54+00",0.0,0.0,,41.4,-4,-562,255,1018.69,38.8,0
"2019-11-10 08:42:54+00",0.0,0.0,,41.5,40,-682,316,1018.6,38.9,0
"2019-11-10 08:47:54+00",0.0,0.0,,41.7,250,-1086,537,1018.7,39.1,0
"2019-11-10 08:52:54+00",0.0,0.0,,41.9,287,-1204,603,1018.7,39.4,0
"2019-11-10 08:57:54+00",0.0,0.0,,41.9,140,-900,427,1018.67,39.7,0
"2019-11-10 09:02:54+00",0.0,0.0,,41.9,232,-1039,513,1018.69,39.9,0
"2019-11-10 09:07:54+00",0.0,0.0,,42.1,201,-994,485,1018.72,40.1,0
"2019-11-10 09:12:54+00",0.0,0.0,,42.2,125,-848,404,1018.73,40.3,0
"2019-11-10 09:17:54+00",0.0,0.0,,42.3,197,-1116,524,1018.86,40.6,0
"2019-11-10 09:22:54+00",0.0,0.0,,42.4,395,-1462,717,1018.81,40.8,0
"2019-11-10 09:27:54+00",0.0,0.0,,42.4,234,-1119,546,1018.75,41,0
"2019-11-10 09:32:54+00",0.0,0.0,,42.6,451,-1616,762,1018.71,41.3,0
"2019-11-10 09:37:54+00",0.0,0.0,,42.6,299,-1327,597,1018.64,41.5,0
"2019-11-10 09:42:54+00",0.0,0.0,,42.6,341,-1399,640,1018.74,41.5,0
"2019-11-10 09:47:54+00",0.0,0.0,,42.5,289,-1271,568,1018.59,41.5,0
"2019-11-10 09:52:54+00",0.0,0.0,,42.5,592,-1928,903,1018.55,41.5,0
"2019-11-10 09:57:54+00",0.0,0.0,,42.5,445,-1616,742,1018.57,41.6,0
"2019-11-10 10:02:54+00",0.0,0.0,,42.5,349,-1416,641,1018.63,41.5,0
"2019-11-10 10:07:54+00",0.0,0.0,,42.5,436,-1565,731,1018.61,41.6,0
"2019-11-10 10:12:54+00",0.0,0.0,,42.6,317,-1298,587,1018.57,41.7,0
"2019-11-10 10:17:54+00",0.0,0.0,,42.7,583,-1851,893,1018.65,41.8,0
"2019-11-10 10:22:54+00",0.0,0.0,,42.8,795,-2298,1146,1018.72,41.8,0
"2019-11-10 10:27:54+00",0.0,0.0,,43,982,-2750,1358,1018.77,42,0
"2019-11-10 10:32:54+00",0.0,0.0,,43.2,642,-2005,975,1018.81,42.2,0
"2019-11-10 10:37:54+00",0.0,0.0,,43.2,758,-2197,1058,1018.73,42.4,0
"2019-11-10 10:42:54+00",0.0,0.0,,43.4,768,-2312,1142,1018.74,42.6,0
"2019-11-10 10:47:54+00",0.0,0.0,,43.4,791,-2321,1140,1018.86,42.8,0
"2019-11-10 10:52:54+00",0.0,0.0,,43.6,614,-1987,973,1018.8,42.8,0
"2019-11-10 10:57:54+00",0.0,0.0,,43.4,575,-1853,889,1018.76,42.8,0
"2019-11-10 11:02:54+00",0.0,0.0,,43.5,674,-2060,984,1018.72,42.8,0
"2019-11-10 11:07:54+00",0.0,0.0,,43.6,570,-1889,888,1018.93,42.8,0
"2019-11-10 11:12:54+00",0.0,0.0,,43.7,649,-2021,957,1018.93,42.9,0
"2019-11-10 11:17:54+00",0.0,0.0,,43.7,639,-1929,913,1018.83,42.8,0
"2019-11-10 11:22:54+00",0.0,0.0,,43.8,710,-2092,1003,1018.86,43,0
"2019-11-10 11:27:54+00",0.0,0.0,,44.1,1061,-2845,1373,1018.9,43.2,0
"2019-11-10 11:32:54+00",0.0,0.0,,44.2,1337,-3493,1705,1018.89,43.4,0
"2019-11-10 11:37:54+00",0.0,0.0,,44.3,751,-2223,1073,1018.8,43.6,0
"2019-11-10 11:42:54+00",0.0,0.0,,44.4,1093,-2895,1393,1018.76,43.7,0
"2019-11-10 11:47:54+00",0.0,0.0,,44.5,578,-1849,872,1018.8,43.9,0
"2019-11-10 11:52:54+00",0.0,0.0,,44.6,852,-2491,1185,1018.83,43.9,0
"2019-11-10 11:57:54+00",0.0,0.0,,44.7,390,-1498,681,1018.71,44.1,0
"2019-11-10 12:02:54+00",0.0,0.0,,44.8,270,-1297,566,1018.86,44.2,0
"2019-11-10 12:07:54+00",0.0,0.0,,44.9,301,-1439,631,1018.81,44.4,0
"2019-11-10 12:12:54+00",0.0,0.0,,45.1,357,-1531,665,1018.76,44.5,0
"2019-11-10 12:17:54+00",0.0,0.0,,45.1,-111,-476,154,1018.71,44.7,0.4
"2019-11-10 12:22:54+00",0.0,0.0,,45.3,-180,-360,80,1018.89,44.8,4.1
"2019-11-10 12:27:54+00",0.0,0.0,,45.4,-165,-423,124,1018.85,45,1.6
"2019-11-10 12:32:54+00",0.0,0.0,,45.5,-116,-590,206,1018.88,45.1,0
"2019-11-10 12:37:54+00",0.0,0.0,,45.6,-8,-990,413,1018.85,45.2,0.1
"2019-11-10 12:42:54+00",0.0,0.0,,45.7,-111,-827,338,1019.03,45.3,0
"2019-11-10 12:47:54+00",0.0,0.0,,45.7,-290,-436,172,1019.19,45.4,0.3
"2019-11-10 12:52:54+00",0.0,0.0,,45.5,-39,-719,331,1019.12,45.5,0.4
"2019-11-10 12:57:54+00",0.0,0.0,,45.4,-13,-722,336,1019.08,45.4,1.5
"2019-11-10 13:02:54+00",0.0,0.0,,45.3,-11,-802,367,1019.01,45.4,1
"2019-11-10 13:07:54+00",0.0,0.0,,45.2,-16,-755,345,1018.9,45.4,4.9
"2019-11-10 13:12:54+00",0.0,0.0,,45.3,-75,-734,348,1019.11,45.4,9.3
"2019-11-10 13:17:54+00",0.0,0.0,,45.6,-188,-621,284,1019.13,45.5,15.3
"2019-11-10 13:22:54+00",0.0,0.0,,45.8,-326,-392,146,1019.08,45.7,13.7
"2019-11-10 13:27:54+00",0.0,0.0,,46,-900,228,-262,1019.05,45.8,19.9
"2019-11-10 13:32:54+00",0.0,0.0,,46.2,-982,354,-340,1019.02,46,40.5
"2019-11-10 13:37:54+00",0.0,0.0,,46.3,-686,57,-181,1018.85,46.3,54
"2019-11-10 13:42:54+00",0.0,0.0,,46.4,-766,175,-208,1018.89,46.6,39.4
"2019-11-10 13:47:54+00",0.0,0.0,,46.4,-977,372,-341,1019.03,46.7,28.2
"2019-11-10 13:52:54+00",0.0,0.0,,46.3,-869,319,-278,1019.09,46.7,33.5
"2019-11-10 13:57:54+00",0.0,0.0,,46.4,-753,101,-198,1018.92,46.7,43.4
"2019-11-10 14:02:54+00",0.0,0.0,,46.4,-816,226,-271,1018.82,46.7,49
"2019-11-10 14:07:54+00",0.0,0.0,,46.5,-695,58,-160,1018.77,46.8,102.9
"2019-11-10 14:12:54+00",7.1,15.1,,46.8,-1501,1123,-850,1018.73,47.2,105.4
"2019-11-10 14:17:54+00",4.1,10.1,,46.9,-2058,2021,-1305,1018.67,47.4,113.1
"2019-11-10 14:22:54+00",0.0,0.0,,47.2,-1507,1211,-838,1018.73,47.7,131.9
"2019-11-10 14:27:54+00",0.0,0.0,,47.3,-1187,704,-568,1018.6,48.1,144.6
"2019-11-10 14:32:54+00",0.0,0.0,,47.4,-1160,681,-551,1018.57,48.4,154.2
"2019-11-10 14:37:54+00",0.7,2.7,,47.5,-1379,948,-718,1018.7,48.7,155.7
"2019-11-10 14:42:54+00",0.5,1.5,,47.7,-798,27,-211,1018.62,48.9,167.3
"2019-11-10 14:47:54+00",0.6,1.6,,47.7,-1355,861,-701,1018.8,49.1,154.3
"2019-11-10 14:52:54+00",0.5,1.5,,47.9,-932,302,-345,1018.91,49.3,187.2
"2019-11-10 14:57:54+00",0.0,0.0,,47.9,-1399,956,-708,1018.88,49.6,201.1
"2019-11-10 15:02:54+00",0.5,1.5,,48.2,-1056,350,-419,1018.71,49.9,147.4
"2019-11-10 15:07:54+00",0.6,1.6,,48.1,-1236,637,-577,1018.68,49.9,301.3
"2019-11-10 15:12:54+00",0.6,0.6,,48.8,-874,64,-238,1018.68,50.7,292.3
"2019-11-10 15:17:54+00",0.5,1.5,,48.6,-1065,401,-379,1018.54,51.2,283.3
"2019-11-10 15:22:54+00",0.5,1.5,,49,-860,111,-202,1018.53,51.5,287.8
"2019-11-10 15:27:54+00",0.7,3.7,,49.1,-727,-206,-126,1018.35,51.9,293.8
"2019-11-10 15:32:54+00",0.5,1.5,,49.2,-625,-350,-59,1018.21,52.1,344
"2019-11-10 15:37:54+00",0.0,0.0,,49.2,-753,-100,-191,1018.04,51.7,289.2
"2019-11-10 15:42:54+00",0.0,0.0,,49.5,-815,39,-171,1017.95,51.8,304.4
"2019-11-10 15:47:54+00",0.0,0.0,,49.8,-565,-317,5,1018.05,52.1,316.5
"2019-11-10 15:52:54+00",0.0,0.0,,50,-798,-42,-160,1018.17,52.6,262.4
"2019-11-10 15:57:54+00",0.0,0.0,,50.2,-568,-308,17,1018.12,52.9,255.9
"2019-11-10 16:02:54+00",0.7,1.7,,50,-949,131,-250,1018.07,52.6,301.8
"2019-11-10 16:07:54+00",0.6,0.6,,50,-887,91,-237,1018.11,52.9,307.3
"2019-11-10 16:12:54+00",0.6,0.6,,50.3,-632,-367,-50,1017.94,53.2,308.9
"2019-11-10 16:17:54+00",0.0,0.0,,50.4,-711,-90,-111,1018,53.3,231.8
"2019-11-10 16:22:54+00",0.0,0.0,,50.3,-529,-555,-8,1017.82,52.9,288.8
"2019-11-10 16:27:54+00",0.0,0.0,,50.5,-487,-521,0,1017.63,52.8,273.2
"2019-11-10 16:32:54+00",0.0,0.0,,50.9,-535,-385,-7,1017.49,52.9,231.7
"2019-11-10 16:37:54+00",0.0,0.0,,50.5,-714,-235,-125,1017.52,52.5,183.5
"2019-11-10 16:42:54+00",0.0,0.0,,50.7,-518,-490,15,1017.56,52.3,199.3
"2019-11-10 16:47:54+00",0.0,0.0,,51,-592,-438,-17,1017.49,52.4,228.5
"2019-11-10 16:52:54+00",0.0,0.0,,51.6,-420,-359,58,1017.38,53.1,265
"2019-11-10 16:57:54+00",0.0,0.0,,51.2,-431,-533,9,1017.17,53.2,342.4
"2019-11-10 17:02:54+00",0.0,0.0,,51.4,-420,-563,3,1017.12,53.5,322
"2019-11-10 17:07:54+00",0.0,0.0,,51.6,-482,-475,25,1017.05,53.8,311.7
"2019-11-10 17:12:54+00",0.5,1.5,,51.9,-371,-639,9,1016.95,54,305.1
"2019-11-10 17:17:54+00",0.5,1.5,,51.7,-435,-481,11,1016.85,53.7,239.1
"2019-11-10 17:22:54+00",0.0,0.0,,52.2,-437,-429,13,1016.88,54.1,304.7
"2019-11-10 17:27:54+00",0.6,1.6,,51.8,-445,-568,2,1016.66,54.1,256.7
"2019-11-10 17:32:54+00",1.0,2.0,,51.7,-474,-668,-14,1016.62,53.7,262.7
"2019-11-10 17:37:54+00",0.0,0.0,,52.2,-251,-485,22,1016.47,54.2,316.4
"2019-11-10 17:42:54+00",0.0,0.0,,52.2,-302,-537,-4,1016.41,54.1,345.9
"2019-11-10 17:47:54+00",0.0,0.0,,52.1,-271,-501,-4,1016.39,54.1,216.4
"2019-11-10 17:52:54+00",0.0,0.0,,52.3,-362,-571,-6,1016.41,54.2,206
"2019-11-10 17:57:54+00",0.0,0.0,,52.3,-433,-421,22,1016.36,54.2,175
"2019-11-10 18:02:54+00",0.0,0.0,,51.8,-476,-514,-2,1016.38,53.6,157.8
"2019-11-10 18:07:54+00",0.0,0.0,,51.7,-451,-552,-3,1016.21,53.5,255.6
"2019-11-10 18:12:54+00",0.0,0.0,,51.8,-305,-558,-5,1016.12,53.2,145.2
"2019-11-10 18:17:54+00",0.0,0.0,,52,-329,-534,2,1016.15,53.2,141.1
"2019-11-10 18:22:54+00",0.0,0.0,,51.9,-306,-488,15,1016.17,53,138.4
"2019-11-10 18:27:54+00",0.6,1.6,,51.9,-448,-537,10,1016.15,53,113.2
"2019-11-10 18:32:54+00",0.0,0.0,,51.9,-367,-506,-7,1016.17,52.8,119.3
"2019-11-10 18:37:54+00",0.7,2.7,,51.8,-558,-504,-18,1016.13,52.8,92.1
"2019-11-10 18:42:54+00",0.0,0.0,,51.9,-375,-428,19,1016.07,52.7,89.6
"2019-11-10 18:47:54+00",0.0,0.0,,51.8,-441,-425,30,1016.01,52.6,86.4
"2019-11-10 18:52:54+00",0.0,0.0,,51.8,-523,-432,-22,1016,52.6,72.5
"2019-11-10 18:57:54+00",0.0,0.0,,51.8,-341,-513,9,1015.96,52.5,60.3
"2019-11-10 19:02:54+00",0.0,0.0,,51.8,-419,-507,0,1015.9,52.4,56.6
"2019-11-10 19:07:54+00",0.0,0.0,,51.8,-429,-485,-2,1015.97,52.4,66.1
"2019-11-10 19:12:54+00",0.0,0.0,,51.9,-399,-470,4,1015.86,52.6,111.5
"2019-11-10 19:17:54+00",0.0,0.0,,52.3,-304,-399,40,1015.82,53,113.5
"2019-11-10 19:22:54+00",0.0,0.0,,52.4,-363,-515,11,1015.76,53.2,110
"2019-11-10 19:27:54+00",0.0,0.0,,52.4,-379,-487,2,1015.88,53.2,66.8
"2019-11-10 19:32:54+00",0.0,0.0,,52.4,-382,-598,-4,1015.81,53.2,119
"2019-11-10 19:37:54+00",0.0,0.0,,52.8,-407,-522,-13,1015.78,53.6,159.7
"2019-11-10 19:42:54+00",0.0,0.0,,53.1,-401,-486,13,1015.81,54,156.6
"2019-11-10 19:47:54+00",0.0,0.0,,53.3,-241,-381,18,1015.78,54.3,96.3
"2019-11-10 19:52:54+00",0.0,0.0,,53.3,-304,-398,-7,1015.84,54.2,133.9
"2019-11-10 19:57:54+00",0.0,0.0,,53.7,-338,-471,2,1015.85,54.5,110.9
"2019-11-10 20:02:54+00",0.0,0.0,,53.7,-311,-498,0,1015.89,54.5,127.4
"2019-11-10 20:07:54+00",0.0,0.0,,53.9,-381,-413,40,1015.89,54.7,100.7
"2019-11-10 20:12:54+00",0.0,0.0,,53.7,-493,-402,13,1016.09,54.7,104.9
"2019-11-10 20:17:54+00",0.0,0.0,,53.7,-348,-374,35,1015.93,54.6,34.7
"2019-11-10 20:22:54+00",0.0,0.0,,53.5,-286,-403,5,1015.85,54.1,30.9
"2019-11-10 20:27:54+00",0.0,0.0,,53.3,-340,-441,18,1015.83,53.6,20.9
"2019-11-10 20:32:54+00",0.0,0.0,,53.3,-341,-448,0,1015.82,53.3,21.2
"2019-11-10 20:37:54+00",0.0,0.0,,53.3,-303,-329,22,1016.07,53.3,17.4
"2019-11-10 20:42:54+00",0.0,0.0,,53.2,-458,-348,3,1016.05,53.1,15
"2019-11-10 20:47:54+00",0.0,0.0,,53,-488,-336,2,1016.06,52.9,5
"2019-11-10 20:52:54+00",0.0,0.0,,52.9,-554,-250,-30,1015.93,52.7,22.3
"2019-11-10 20:57:54+00",0.0,0.0,,53.3,-454,-317,23,1015.91,53,31.9
"2019-11-10 21:02:54+00",0.0,0.0,,53.4,-408,-304,22,1015.92,53.4,25.2
"2019-11-10 21:07:54+00",0.0,0.0,,53.2,-441,-270,9,1016.01,53.5,11.5
"2019-11-10 21:12:54+00",0.0,0.0,,52.9,-388,-249,20,1016.03,53.4,0
"2019-11-10 21:17:54+00",0.0,0.0,,52.7,-397,-267,14,1016.13,53.2,0
"2019-11-10 21:22:54+00",0.0,0.0,,52.4,-390,-293,6,1016.08,52.6,0
"2019-11-10 21:27:54+00",0.0,0.0,,52.3,-345,-287,5,1016.05,52,0
"2019-11-10 21:32:54+00",0.0,0.0,,52.2,-366,-286,10,1016.12,51.4,0
"2019-11-10 21:37:54+00",0.0,0.0,,51.8,-350,-222,17,1016.18,51,0
"2019-11-10 21:42:54+00",0.0,0.0,,51.8,-372,-252,15,1016.18,50.7,0
"2019-11-10 21:47:54+00",0.0,0.0,,51.8,-325,-248,8,1016.03,50.4,0
"2019-11-10 21:52:54+00",0.0,0.0,,51.8,-294,-285,2,1015.9,50.2,0
"2019-11-10 21:57:54+00",0.0,0.0,,51.9,-328,-269,5,1016.05,50,0
"2019-11-10 22:02:54+00",0.0,0.0,,52,-336,-257,9,1016.12,49.9,0
"2019-11-10 22:07:54+00",0.0,0.0,,51.5,-262,-274,4,1016.22,49.7,0
"2019-11-10 22:12:54+00",0.0,0.0,,51.1,-229,-257,5,1016.27,49.4,0
"2019-11-10 22:17:54+00",0.0,0.0,,50.6,-203,-277,0,1016.22,48.8,0
"2019-11-10 22:22:54+00",0.0,0.0,,50.5,-237,-280,0,1016.24,48.2,0
"2019-11-10 22:27:54+00",0.0,0.0,,50.6,-281,-273,-3,1016.24,47.9,0
"2019-11-10 22:32:54+00",0.0,0.0,,50.5,-244,-306,-4,1016.13,47.6,0
"2019-11-10 22:37:54+00",0.0,0.0,,50.5,-174,-342,-8,1015.97,47.5,0
"2019-11-10 22:42:54+00",0.0,0.0,,50.3,-173,-342,-8,1016.04,47.5,0
"2019-11-10 22:47:54+00",0.0,0.0,,50.2,-161,-321,-4,1015.99,47.6,0
"2019-11-10 22:52:54+00",0.0,0.0,,50.2,-177,-303,-6,1016.04,47.7,0
"2019-11-10 22:57:54+00",0.0,0.0,,50.2,-147,-297,-7,1016.03,47.5,0
"2019-11-10 23:02:54+00",0.0,0.0,,50.2,-158,-270,-1,1016.13,47.3,0
"2019-11-10 23:07:54+00",0.0,0.0,,50.2,-151,-303,-6,1016.09,47.1,0
"2019-11-10 23:12:54+00",0.0,0.0,,50.3,-123,-316,-5,1016.1,47.2,0
"2019-11-10 23:17:54+00",0.0,0.0,,50.8,-180,-350,-6,1016.17,47.5,0
"2019-11-10 23:22:54+00",0.0,0.0,,51,-232,-332,-5,1016.25,47.3,0
"2019-11-10 23:27:54+00",0.0,0.0,,51.1,-263,-301,-1,1016.28,47.2,0
"2019-11-10 23:32:54+00",0.0,0.0,,51.2,-302,-305,0,1016.27,47.1,0
"2019-11-10 23:37:54+00",0.0,0.0,,50.9,-302,-294,-4,1016.23,47,0
"2019-11-10 23:42:54+00",0.0,0.0,,50.7,-318,-264,2,1016.2,47,0
"2019-11-10 23:47:54+00",0.0,0.0,,50.6,-365,-238,17,1016.28,47.1,0
"2019-11-10 23:52:54+00",0.0,0.0,,50.6,-368,-209,12,1016.27,47.2,0
"2019-11-10 23:57:54+00",0.0,0.0,,50.4,-399,-193,12,1016.33,47.2,0
